Date String (YYYY-MM-DD hh:mm:ss) UTC,Instrument flags,absolute air pressure of the measurement (hPa),sample flow rate (lpm),inlet stack bypass flow (lpm),air temperature of the measurement (°C),ambient temperature measured by the external sensor (°C),aerosol sample conditioner tube jacket temperature (°C),OPC LED temperature (°C),internal box temperature (°C),relative humidity of the measurement (%),span deviation,mass concentration of particles derived from Lorenz-Mie calculation of OPC scattering (μg/m³),mass concentration of particles derived from Lorenz-Mie calculation of OPC scattering (μg/m³),mass concentration of particles derived from Lorenz-Mie calculation of OPC scattering (μg/m³)
DateTimeUTC,F1_M11,P_M11,Q1_M11,Q2_M11,T1_M11,T2_M11,T3_M11,T4_M11,T5_M11,U1_M11,ZSPAN_M11,X0_M11,X2_M11,X1_M11
2023-06-25 15:00:00,SystemResetWarning,0835.6,5.00,000.00,029.7,027.6,000.0,038.3,031.2,27.2,0000.0,0009.19,0004.15,0003.03
2023-06-25 15:01:00,SystemResetWarning,0835.6,4.99,000.00,029.7,027.8,000.0,038.3,031.2,26.6,0000.0,0009.76,0004.15,0003.06
2023-06-25 15:02:00,SystemResetWarning,0835.6,4.99,000.00,029.7,027.9,000.0,038.3,031.2,26.9,0000.0,0010.26,0004.16,0003.07
2023-06-25 15:03:00,SystemResetWarning,0835.6,5.00,000.00,029.8,028.0,000.0,038.3,031.3,27.2,0000.0,0011.68,0004.11,0003.06
2023-06-25 15:04:00,SystemResetWarning,0835.6,5.00,000.00,029.8,028.1,000.0,038.3,031.3,27.5,0000.0,0012.28,0004.10,0003.10
2023-06-25 15:05:00,SystemResetWarning,0835.6,5.01,000.00,029.8,028.2,000.0,038.3,031.3,27.2,0000.0,0012.57,0004.14,0003.13
2023-06-25 15:06:00,SystemResetWarning,0835.6,5.01,000.00,029.8,028.3,000.0,038.4,031.4,27.9,0000.0,0012.62,0004.15,0003.16
2023-06-25 15:07:00,SystemResetWarning,0835.7,5.00,000.00,029.9,028.3,000.0,038.4,031.4,27.6,0000.0,0013.05,0004.21,0003.17
2023-06-25 15:08:00,SystemResetWarning,0835.8,5.00,000.00,029.9,028.4,000.0,038.4,031.4,27.1,0000.0,0013.18,0004.22,0003.17
2023-06-25 15:09:00,SystemResetWarning,0835.6,5.00,000.00,029.9,028.5,000.0,038.4,031.5,27.0,0000.0,0013.13,0004.20,0003.19
2023-06-25 15:10:00,SystemResetWarning,0835.8,5.00,000.00,029.9,028.5,000.0,038.4,031.5,27.1,0000.0,0013.54,0004.24,0003.21
2023-06-25 15:11:00,SystemResetWarning,0835.7,4.99,000.00,030.0,028.5,000.0,038.4,031.5,27.4,0000.0,0013.95,0004.25,0003.21
2023-06-25 15:12:00,SystemResetWarning,0835.7,4.99,000.00,030.0,028.6,000.0,038.4,031.6,27.6,0000.0,0013.77,0004.26,0003.23
2023-06-25 15:13:00,SystemResetWarning,0835.6,4.98,000.00,030.0,027.8,000.0,038.4,031.7,27.5,0000.0,0014.10,0004.26,0003.25
2023-06-25 15:14:00,SystemResetWarning,0835.6,5.00,000.00,030.0,025.6,000.0,038.3,031.4,27.4,0000.0,0012.76,0004.30,0003.29
2023-06-25 15:15:00,SystemResetWarning,0835.6,5.01,000.00,029.9,024.7,000.0,038.3,031.3,27.1,0000.0,0011.89,0004.31,0003.31
2023-06-25 15:16:00,SystemResetWarning,0835.6,5.01,000.00,029.8,025.0,000.0,038.3,031.1,28.0,0000.0,0011.62,0004.34,0003.33
2023-06-25 15:17:00,SystemResetWarning,0835.6,5.00,000.00,029.7,025.4,000.0,038.3,031.0,28.4,0000.0,0011.60,0004.40,0003.34
2023-06-25 15:18:00,SystemResetWarning,0835.6,4.99,000.00,029.7,025.9,000.0,038.3,031.0,27.9,0000.0,0011.45,0004.45,0003.37
2023-06-25 15:19:00,SystemResetWarning,0835.6,5.00,000.00,029.7,026.3,000.0,038.3,031.0,28.6,0000.0,0011.30,0004.47,0003.39
2023-06-25 15:20:00,SystemResetWarning,0835.6,5.00,000.00,029.7,026.7,000.0,038.3,031.0,28.9,0000.0,0011.20,0004.48,0003.43
2023-06-25 15:21:00,SystemResetWarning,0835.6,5.00,000.00,029.7,027.0,000.0,038.3,031.1,28.7,0000.0,0010.85,0004.49,0003.44
2023-06-25 15:22:00,SystemResetWarning,0835.6,5.00,000.00,029.7,027.3,000.0,038.3,031.1,28.6,0000.0,0010.33,0004.50,0003.48
2023-06-25 15:23:00,SystemResetWarning,0835.6,5.00,000.00,029.7,027.5,000.0,038.3,031.1,28.0,0000.0,0010.24,0004.56,0003.50
2023-06-25 15:24:00,SystemResetWarning,0835.6,4.99,000.00,029.7,027.7,000.0,038.3,031.2,27.7,0000.0,0010.35,0004.61,0003.51
2023-06-25 15:25:00,SystemResetWarning,0835.6,5.00,000.00,029.7,027.8,000.0,038.3,031.2,28.3,0000.0,0010.30,0004.61,0003.49
2023-06-25 15:26:00,SystemResetWarning,0835.6,5.00,000.00,029.7,028.0,000.0,038.3,031.3,27.9,0000.0,0011.57,0004.66,0003.50
2023-06-25 15:27:00,SystemResetWarning,0835.6,5.00,000.00,029.7,028.1,000.0,038.3,031.3,27.6,0000.0,0011.90,0004.64,0003.51
2023-06-25 15:28:00,SystemResetWarning,0835.6,5.00,000.00,029.7,028.1,000.0,038.3,031.3,27.8,0000.0,0013.29,0004.66,0003.54
2023-06-25 15:29:00,SystemResetWarning,0835.6,5.00,000.00,029.8,028.2,000.0,038.3,031.3,27.5,0000.0,0013.39,0004.66,0003.57
2023-06-25 15:30:00,SystemResetWarning,0835.6,4.98,000.00,029.8,028.3,000.0,038.3,031.4,27.7,0000.0,0013.46,0004.67,0003.59
2023-06-25 15:31:00,SystemResetWarning,0835.5,5.00,000.00,029.8,028.3,000.0,038.3,031.4,28.6,0000.0,0013.90,0004.72,0003.60
2023-06-25 15:32:00,SystemResetWarning,0835.5,5.00,000.00,029.8,028.4,000.0,038.3,031.4,29.1,0000.0,0014.05,0004.77,0003.63
2023-06-25 15:33:00,SystemResetWarning,0835.7,5.00,000.00,029.9,028.4,000.0,038.3,031.4,28.7,0000.0,0014.28,0004.85,0003.66
2023-06-25 15:34:00,SystemResetWarning,0835.5,5.00,000.00,029.9,028.2,000.0,038.3,031.5,27.9,0000.0,0014.28,0004.88,0003.70
2023-06-25 15:35:00,SystemResetWarning,0835.7,5.00,000.00,029.9,026.4,000.0,038.3,031.5,27.9,0000.0,0014.60,0004.92,0003.73
2023-06-25 15:36:00,SystemResetWarning,0835.5,5.00,000.00,029.9,025.8,000.0,038.2,031.5,27.7,0000.0,0015.53,0004.97,0003.77
2023-06-25 15:37:00,SystemResetWarning,0835.5,5.01,000.00,029.8,026.1,000.0,038.2,031.3,28.2,0000.0,0014.61,0004.96,0003.77
2023-06-25 15:38:00,SystemResetWarning,0835.5,5.00,000.00,029.8,026.4,000.0,038.2,031.2,28.6,0000.0,0014.58,0005.03,0003.78
2023-06-25 15:39:00,SystemResetWarning,0835.6,4.98,000.00,029.8,026.7,000.0,038.3,031.2,29.0,0000.0,0013.39,0004.98,0003.78
2023-06-25 15:40:00,SystemResetWarning,0835.6,5.00,000.00,029.7,027.0,000.0,038.3,031.2,28.3,0000.0,0013.48,0005.01,0003.79
2023-06-25 15:41:00,SystemResetWarning,0835.5,5.02,000.00,029.8,027.3,000.0,038.3,031.2,28.2,0000.0,0014.92,0005.07,0003.80
2023-06-25 15:42:00,SystemResetWarning,0835.5,5.00,000.00,029.8,027.6,000.0,038.3,031.2,28.9,0000.0,0014.91,0005.08,0003.80
2023-06-25 15:43:00,SystemResetWarning,0835.5,4.99,000.00,029.8,027.8,000.0,038.3,031.3,28.4,0000.0,0014.75,0005.07,0003.79
2023-06-25 15:44:00,SystemResetWarning,0835.5,4.99,000.00,029.8,027.9,000.0,038.3,031.3,27.9,0000.0,0015.74,0005.03,0003.77
2023-06-25 15:45:00,SystemResetWarning,0835.6,4.99,000.00,029.8,028.0,000.0,038.3,031.3,28.4,0000.0,0015.83,0004.96,0003.74
2023-06-25 15:46:00,SystemResetWarning,0835.5,5.00,000.00,029.8,028.1,000.0,038.3,031.4,28.2,0000.0,0015.27,0004.89,0003.70
2023-06-25 15:47:00,SystemResetWarning,0835.5,5.00,000.00,029.8,028.2,000.0,038.3,031.4,27.5,0000.0,0015.18,0004.81,0003.67
2023-06-25 15:48:00,SystemResetWarning,0835.5,5.00,000.00,029.9,028.3,000.0,038.3,031.4,27.5,0000.0,0015.34,0004.80,0003.67
2023-06-25 15:49:00,SystemResetWarning,0835.5,5.00,000.00,029.9,028.3,000.0,038.4,031.5,27.6,0000.0,0015.31,0004.74,0003.68
2023-06-25 15:50:00,SystemResetWarning,0835.5,4.99,000.00,029.9,027.1,000.0,038.3,031.6,27.8,0000.0,0015.66,0004.75,0003.68
2023-06-25 15:51:00,SystemResetWarning,0835.5,5.00,000.00,029.9,025.1,000.0,038.2,031.3,27.9,0000.0,0015.78,0004.72,0003.68
2023-06-25 15:52:00,SystemResetWarning,0835.5,5.01,000.00,029.8,024.6,000.0,038.2,031.3,28.2,0000.0,0014.50,0004.72,0003.69
2023-06-25 15:53:00,SystemResetWarning,0835.5,5.01,000.00,029.7,024.9,000.0,038.2,030.9,28.3,0000.0,0014.29,0004.73,0003.70
2023-06-25 15:54:00,SystemResetWarning,0835.5,5.00,000.00,029.6,025.3,000.0,038.2,030.9,28.6,0000.0,0014.98,0004.71,0003.70
2023-06-25 15:55:00,SystemResetWarning,0835.5,5.00,000.00,029.6,025.8,000.0,038.2,030.9,28.6,0000.0,0014.01,0004.72,0003.72
2023-06-25 15:56:00,SystemResetWarning,0835.5,5.00,000.00,029.6,026.3,000.0,038.2,030.9,28.1,0000.0,0013.87,0004.76,0003.74
2023-06-25 15:57:00,SystemResetWarning,0835.5,5.00,000.00,029.5,026.6,000.0,038.2,030.9,28.3,0000.0,0014.13,0004.78,0003.77
2023-06-25 15:58:00,SystemResetWarning,0835.5,5.00,000.00,029.5,026.9,000.0,038.1,030.9,28.6,0000.0,0013.53,0004.83,0003.78
2023-06-25 15:59:00,SystemResetWarning,0835.4,5.00,000.00,029.5,027.2,000.0,038.1,031.0,28.3,0000.0,0013.41,0004.85,0003.76
